,

(GMT )
Resolute

Weather History for CYRB - November, 2012

Change the Weather History Date:

Thursday, November 15, 2012

  Actual Average Record
Temperature  
Mean Temperature -3 °F -  
Max Temperature 1 °F 0 °F 17 °F (1998)
Min Temperature -7 °F -8 °F -29 °F (2007)
Degree Days  
Heating Degree Days 68    
Moisture  
Dew Point -9 °F    
Average Humidity 62    
Maximum Humidity 66    
Minimum Humidity 48    
Precipitation  
Precipitation 0.00 in - - ()
Sea Level Pressure  
Sea Level Pressure 29.71 in    
Wind  
Wind Speed 15 mph ()    
Max Wind Speed 23 mph    
Max Gust Speed 25 mph    
Visibility 9.6 miles    
Events Snow    
Averages and records for this station are not official NWS values.
T = Trace of Precipitation, MM = Missing Value Source: Averaged Metar Reports

Daily Weather History Graph

Daily Weather History Graph

Search for Another Location

Airport or City:

Trip Planner

Search our weather history database for the weather conditions in past years. The results will help you decide how hot, cold, wet, or windy it might be!

Date:

Astronomy

Dec. 31, 1969 Rise Set
Actual Time Sun does not rise Sun does not rise
Civil Twilight 9:44 AM CST 2:23 PM CST
Nautical Twilight 7:39 AM CST 4:27 PM CST
Astronomical Twilight 6:04 AM CST 6:03 PM CST
Moon No Moon Rise No Moon Set
Length of Visible Light 4h 38m
Length of Day
0h 00m
Waxing Crescent, 5% of the Moon is Illuminated
Nov 15
Waxing Crescent
Nov 20
First Quarter
Nov 28
Full
Dec 6
Last Quarter
Dec 13
New

Hourly Weather History & Observations

Time (CST) Temp. Windchill Dew Point Humidity Pressure Visibility Wind Dir Wind Speed Gust Speed Precip Events Conditions
12:00 AM -1 °F - -10 °F 52% 29.59 in 15 mi ESE 12.7 mph - - Snow Snow
12:00 AM -0.4 °F -18.4 °F -9.4 °F 66% 29.59 in 15.0 mi ESE 12.7 mph - N/A   Mostly Cloudy
1:00 AM -0.4 °F -19.2 °F -9.4 °F 66% 29.61 in 15.0 mi ESE 13.8 mph - N/A Snow Low Drifting Snow
2:00 AM -0.4 °F -15.7 °F -9.4 °F 66% 29.62 in 15.0 mi SE 9.2 mph - N/A Snow Light Snow
3:00 AM 1.4 °F -16.9 °F -7.6 °F 66% 29.62 in 15.0 mi ESE 13.8 mph - N/A Snow Light Snow
4:00 AM 1.4 °F -18.2 °F -7.6 °F 66% 29.63 in 15.0 mi ESE 16.1 mph - N/A Snow Light Snow
5:00 AM 1.4 °F -19.4 °F -9.4 °F 61% 29.64 in 12.0 mi ESE 18.4 mph - N/A Snow Light Snow
6:00 AM 1 °F - -8 °F 50% 29.65 in 12 mi SE 16.1 mph - - Snow Light Snow
6:00 AM 1.4 °F -18.2 °F -7.6 °F 66% 29.65 in 12.0 mi SE 16.1 mph - N/A Snow Light Snow
7:00 AM 1.4 °F -19.9 °F -7.6 °F 66% 29.65 in 10.0 mi ESE 19.6 mph - N/A Snow Light Snow
8:00 AM 1.4 °F -16.1 °F -9.4 °F 61% 29.68 in 15.0 mi ESE 12.7 mph - N/A Snow Light Snow
9:00 AM 1.4 °F -18.2 °F -7.6 °F 66% 29.67 in 15.0 mi ESE 16.1 mph - N/A Snow Light Snow
10:00 AM 1.4 °F -17.6 °F -9.4 °F 61% 29.68 in 12.0 mi SE 15.0 mph - N/A Snow Light Snow
11:00 AM 1.4 °F -18.8 °F -7.6 °F 66% 29.70 in 15.0 mi SE 17.3 mph - N/A Snow Light Snow
12:00 PM 1 °F - -9 °F 49% 29.72 in 15 mi ESE 19.6 mph - - Snow Light Snow
12:00 PM 1.4 °F -19.9 °F -9.4 °F 61% 29.72 in 15.0 mi ESE 19.6 mph - N/A Snow Light Snow
1:00 PM 1.4 °F -19.4 °F -9.4 °F 61% 29.73 in 15.0 mi ESE 18.4 mph 24.2 mph N/A Snow Light Snow
2:00 PM 1.4 °F -16.9 °F -9.4 °F 61% 29.75 in 15.0 mi ESE 13.8 mph - N/A Snow Light Snow
3:00 PM -0.4 °F -21.7 °F -9.4 °F 66% 29.76 in 15.0 mi SE 18.4 mph - N/A Snow Light Snow
3:17 PM - - - N/A% - 9.0 mi SE 19.6 mph - N/A   Unknown
4:00 PM -0.4 °F -22.3 °F -9.4 °F 66% 29.77 in 9.0 mi SE 19.6 mph - N/A Snow Low Drifting Snow
4:48 PM - - - N/A% - 2.0 mi SE 21.9 mph - N/A   Unknown
4:54 PM - - - N/A% - 1.5 mi SE 23.0 mph - N/A   Unknown
5:00 PM -0.4 °F -23.3 °F -9.4 °F 66% 29.78 in 2.2 mi SE 21.9 mph - N/A Snow Light Snow
5:50 PM - - - N/A% - 4.0 mi SE 23.0 mph - N/A   Unknown
6:00 PM 1 °F - -9 °F 48% 29.80 in 5 mi SE 18.4 mph - - Snow Light Snow
6:00 PM 1.4 °F -19.4 °F -9.4 °F 61% 29.80 in 5.0 mi SE 18.4 mph - N/A Snow Light Snow
7:00 PM -0.4 °F -20.5 °F -11.2 °F 60% 29.81 in 4.0 mi ESE 16.1 mph - N/A Snow Light Snow
8:00 PM -0.4 °F -20.5 °F -11.2 °F 60% 29.82 in 8.0 mi ESE 16.1 mph - N/A Snow Light Snow
9:00 PM -2.2 °F -23.5 °F -11.2 °F 66% 29.83 in 8.0 mi ESE 17.3 mph - N/A Snow Light Snow
9:16 PM - - - N/A% - 8.0 mi SE 18.4 mph - N/A   Unknown
10:00 PM -2.2 °F -22.9 °F -11.2 °F 66% 29.85 in 2.0 mi ESE 16.1 mph - N/A Snow Light Snow
10:10 PM - - - N/A% - 1.5 mi ESE 20.7 mph - N/A   Unknown
10:24 PM - - - N/A% - 4.0 mi SE 13.8 mph - N/A   Unknown
10:52 PM - - - N/A% - 3.0 mi SE 19.6 mph 25.3 mph N/A   Unknown
11:00 PM -0.4 °F -22.8 °F -11.2 °F 60% 29.86 in 3.0 mi SE 20.7 mph - N/A Snow Light Snow